Location: ?????????
(38.0736°N, 23.2119°E)
Time: 02:05:37
(UTC+00:00)

Atlas Centaur 2 - Visible Passes

Search period start: 19 July 2024 00:00
Search period end: 29 July 2024 00:00
Orbit: 458 x 1275 km, 30.4° (Epoch: 18 July)

Date Brightness Start Highest point End Pass type
(mag) Time Alt. Az. Time Alt. Az. Time Alt. Az.
19 Jul 4.3 00:27:44 22° SSE 00:27:44 22° SSE 00:33:17 10° ESE visible
19 Jul 3.6 02:09:56 15° SW 02:16:04 39° SSE 02:22:57 10° ESE visible
20 Jul 4.2 00:18:22 24° SSE 00:18:22 24° SSE 00:23:53 10° ESE visible
20 Jul 3.5 02:00:33 18° SW 02:06:16 42° SSE 02:13:24 10° E visible
21 Jul 4.1 00:08:59 26° SE 00:08:59 26° SE 00:14:24 10° ESE visible
21 Jul 3.4 01:51:11 21° SW 01:56:27 45° S 02:03:47 10° ESE visible
21 Jul 4.1 23:59:36 28° SE 23:59:36 28° SE 00:04:48 10° E visible
22 Jul 3.4 01:41:47 24° SW 01:46:36 47° S 01:54:08 10° ESE visible
22 Jul 4.1 23:50:13 29° SE 23:50:13 29° SE 23:55:08 10° E visible
23 Jul 3.3 01:32:24 27° SW 01:36:45 48° S 01:44:25 10° ESE visible
23 Jul 4.1 23:40:52 28° SE 23:40:52 28° SE 23:45:26 10° E visible
24 Jul 3.3 01:23:03 30° SW 01:26:53 49° S 01:34:40 10° ESE visible
24 Jul 4.2 23:31:33 27° ESE 23:31:33 27° ESE 23:35:39 10° E visible
25 Jul 3.2 01:13:45 34° SW 01:16:59 50° S 01:24:52 10° ESE visible
25 Jul 4.3 23:22:19 25° ESE 23:22:19 25° ESE 23:25:49 10° E visible
26 Jul 3.2 01:04:31 38° SW 01:07:05 50° S 01:15:01 10° ESE visible
26 Jul 3.6 02:48:24 10° W 02:55:58 40° SSW 03:03:16 10° SE visible
26 Jul 4.5 23:13:12 21° ESE 23:13:12 21° ESE 23:15:56 10° E visible
27 Jul 3.2 00:55:25 43° SW 00:57:10 50° S 01:05:07 10° ESE visible
27 Jul 3.6 02:38:37 10° W 02:46:02 37° SSW 02:53:17 10° SE visible
27 Jul 4.7 23:04:14 17° ESE 23:04:14 17° ESE 23:06:01 10° E visible
28 Jul 3.1 00:46:28 47° SSW 00:47:15 48° S 00:55:11 10° ESE visible
28 Jul 3.7 02:28:52 10° W 02:36:04 34° SSW 02:43:15 10° SE visible
28 Jul 5.0 22:55:27 12° ESE 22:55:27 12° ESE 22:56:03 10° ESE visible
